Weather History for KPTT - March, 2014

Change the Weather History Date:

Wednesday, March 26, 2014

  Actual Average (KP28) Record (KP28)
Temperature  
Mean Temperature 39 °F 50 °F  
Max Temperature 46 °F 62 °F 93 °F (1956)
Min Temperature 32 °F 37 °F 6 °F (1955)
Degree Days  
Heating Degree Days 26 15  
Month to date heating degree days 496  
Since 1 July heating degree days 4025  
Cooling Degree Days 0 0  
Month to date cooling degree days 0  
Year to date cooling degree days 0  
Moisture  
Dew Point 33 °F    
Average Humidity 78    
Maximum Humidity 100    
Minimum Humidity 53    
Precipitation  
Precipitation 0.02 in 0.07 in 1.10 in (1995)
Month to date precipitation 1.89  
Year to date precipitation 3.64  
Snow  
Snow 0.00 in 0.00 in - ()
Month to date snowfall 0.1  
Since 1 July snowfall 8.5  
Snow Depth -    
Sea Level Pressure  
Sea Level Pressure 29.82 in    
Wind  
Wind Speed 19 mph (South)    
Max Wind Speed 40 mph    
Max Gust Speed 52 mph    
Visibility 8 miles    
Events Rain    
T = Trace of Precipitation, MM = Missing Value Source: NWS Daily Summary

Daily Weather History Graph

Daily Weather History Graph

Search for Another Location

Airport or City:

Trip Planner

Search our weather history database for the weather conditions in past years. The results will help you decide how hot, cold, wet, or windy it might be!

Date:

Astronomy

Mar. 26, 2014 Rise Set
Actual Time 7:29 AM CDT 7:52 PM CDT
Civil Twilight 7:03 AM CDT 8:18 PM CDT
Nautical Twilight 6:32 AM CDT 8:49 PM CDT
Astronomical Twilight 6:00 AM CDT 9:21 PM CDT
Moon 4:34 AM CDT (3/26) 3:37 PM CDT (3/26)
Length of Visible Light 13h 15m
Length of Day
12h 23m
Waning Crescent, 21% of the Moon is Illuminated
Mar 26
Waning Crescent
Mar 30
New
Apr 7
First Quarter
Apr 15
Full
Apr 22
Last Quarter

Hourly Weather History & Observations

Time (CDT) Temp. Windchill Dew Point Humidity Pressure Visibility Wind Dir Wind Speed Gust Speed Precip Events Conditions
12:15 AM 37.4 °F 28.9 °F 24.8 °F 60% 30.09 in 10.0 mi SSE 13.8 mph - N/A   Clear
12:35 AM 37.4 °F 28.9 °F 24.8 °F 60% 30.09 in 10.0 mi South 13.8 mph 19.6 mph N/A   Clear
12:55 AM 37.4 °F 28.5 °F 23.0 °F 56% 30.08 in 10.0 mi SSE 15.0 mph 19.6 mph N/A   Clear
1:15 AM 37.4 °F 27.8 °F 23.0 °F 56% 30.08 in 10.0 mi South 17.3 mph 20.7 mph N/A   Clear
1:35 AM 35.6 °F 26.6 °F 23.0 °F 60% 30.07 in 10.0 mi South 13.8 mph - N/A   Clear
1:55 AM 35.6 °F 26.6 °F 23.0 °F 60% 30.07 in 10.0 mi South 13.8 mph - N/A   Clear
2:15 AM 35.6 °F 26.2 °F 23.0 °F 60% 30.06 in 10.0 mi South 15.0 mph 19.6 mph N/A   Clear
2:35 AM 35.6 °F 26.2 °F 23.0 °F 60% 30.05 in 10.0 mi South 15.0 mph 21.9 mph N/A   Clear
2:55 AM 35.6 °F 27.1 °F 23.0 °F 60% 30.05 in 10.0 mi South 12.7 mph - N/A   Clear
3:15 AM 33.8 °F 23.9 °F 23.0 °F 65% 30.03 in 10.0 mi SSE 15.0 mph - N/A   Clear
3:35 AM 33.8 °F 23.5 °F 23.0 °F 65% 30.02 in 10.0 mi SSE 16.1 mph - N/A   Clear
3:55 AM 33.8 °F 23.9 °F 23.0 °F 65% 30.00 in 10.0 mi SSE 15.0 mph - N/A   Clear
4:15 AM 33.8 °F 24.3 °F 23.0 °F 65% 29.99 in 10.0 mi South 13.8 mph - N/A   Clear
4:35 AM 33.8 °F 24.3 °F 23.0 °F 65% 29.98 in 10.0 mi South 13.8 mph 20.7 mph N/A   Clear
4:55 AM 32.0 °F 22.1 °F 23.0 °F 69% 29.97 in 10.0 mi SSE 13.8 mph - N/A   Clear
5:15 AM 32.0 °F 22.1 °F 24.8 °F 75% 29.96 in 10.0 mi South 13.8 mph - N/A   Clear
5:35 AM 33.8 °F 23.2 °F 24.8 °F 70% 29.95 in 10.0 mi South 17.3 mph 20.7 mph N/A   Clear
5:55 AM 33.8 °F 23.9 °F 24.8 °F 70% 29.94 in 10.0 mi SSE 15.0 mph - N/A   Clear
6:15 AM 33.8 °F 23.9 °F 26.6 °F 75% 29.94 in 10.0 mi SSE 15.0 mph - N/A   Clear
6:35 AM 33.8 °F 23.9 °F 26.6 °F 75% 29.93 in 10.0 mi SSE 15.0 mph - N/A   Clear
6:55 AM 33.8 °F 23.9 °F 26.6 °F 75% 29.93 in 10.0 mi South 15.0 mph 21.9 mph N/A   Clear
7:15 AM 33.8 °F 23.5 °F 26.6 °F 75% 29.93 in 10.0 mi South 16.1 mph - N/A   Clear
7:35 AM 33.8 °F 22.8 °F 26.6 °F 75% 29.93 in 10.0 mi South 18.4 mph 24.2 mph N/A   Clear
7:55 AM 35.6 °F 24.0 °F 26.6 °F 70% 29.93 in 10.0 mi South 23.0 mph - N/A   Clear
8:15 AM 35.6 °F 23.7 °F 26.6 °F 70% 29.93 in 10.0 mi South 24.2 mph 28.8 mph N/A   Clear
8:35 AM 37.4 °F 26.1 °F 26.6 °F 65% 29.92 in 10.0 mi South 24.2 mph 28.8 mph N/A   Clear
8:55 AM 37.4 °F 27.2 °F 26.6 °F 65% 29.92 in 10.0 mi South 19.6 mph 29.9 mph N/A   Clear
9:15 AM 39.2 °F 28.5 °F 26.6 °F 61% 29.91 in 10.0 mi South 24.2 mph 29.9 mph N/A   Clear
9:35 AM 41.0 °F 30.5 °F 26.6 °F 57% 29.90 in 10.0 mi South 26.5 mph 35.7 mph N/A   Clear
9:55 AM 42.8 °F 32.3 °F 28.4 °F 57% 29.89 in 10.0 mi South 29.9 mph - N/A   Clear
10:15 AM 44.6 °F 35.3 °F 28.4 °F 53% 29.89 in 10.0 mi South 26.5 mph 38.0 mph N/A   Clear
10:35 AM 44.6 °F 34.9 °F 28.4 °F 53% 29.88 in 10.0 mi South 28.8 mph 34.5 mph N/A   Clear
10:55 AM 44.6 °F 34.7 °F 28.4 °F 53% 29.88 in 10.0 mi South 29.9 mph 40.3 mph N/A   Clear
11:15 AM 44.6 °F 34.4 °F 28.4 °F 53% 29.87 in 10.0 mi South 32.2 mph 41.4 mph N/A   Clear
11:35 AM 44.6 °F 34.9 °F 30.2 °F 57% 29.87 in 10.0 mi South 28.8 mph 38.0 mph N/A   Clear
11:55 AM 46.4 °F 36.4 °F 32.0 °F 57% 29.86 in 7.0 mi South 35.7 mph 51.8 mph N/A   Scattered Clouds
12:15 PM 44.6 °F 35.1 °F 33.8 °F 66% 29.86 in 10.0 mi South 27.6 mph 47.2 mph N/A   Scattered Clouds
12:35 PM 42.8 °F 30.8 °F 35.6 °F 76% 29.83 in 10.0 mi South 40.3 mph 47.2 mph N/A   Mostly Cloudy
12:55 PM 42.8 °F 31.9 °F 37.4 °F 81% 29.84 in 7.0 mi South 32.2 mph 40.3 mph N/A   Light Drizzle
1:15 PM 41.0 °F 30.5 °F 39.2 °F 93% 29.84 in 5.0 mi South 26.5 mph 36.8 mph N/A Rain Light Rain
1:35 PM 41.0 °F 31.1 °F 39.2 °F 93% 29.83 in 5.0 mi South 23.0 mph 32.2 mph N/A Rain Rain
1:55 PM 41.0 °F 31.4 °F 41.0 °F 100% 29.82 in 4.0 mi South 21.9 mph - 0.01 in Rain Light Rain
2:15 PM 42.8 °F 34.0 °F 41.0 °F 93% 29.81 in 5.0 mi South 20.7 mph 28.8 mph N/A Rain Light Rain
2:35 PM 42.8 °F 33.3 °F 42.8 °F 100% 29.80 in 10.0 mi South 24.2 mph 33.4 mph 0.01 in Rain Light Rain
2:55 PM 42.8 °F 34.0 °F 42.8 °F 100% 29.78 in 10.0 mi South 20.7 mph 33.4 mph 0.01 in Rain Light Rain
3:15 PM 42.8 °F 33.5 °F 42.8 °F 100% 29.76 in 7.0 mi South 23.0 mph 28.8 mph N/A   Light Drizzle
3:35 PM 42.8 °F 33.3 °F 42.8 °F 100% 29.75 in 7.0 mi South 24.2 mph 31.1 mph N/A Rain Light Rain
3:55 PM 42.8 °F 33.3 °F 41.0 °F 93% 29.74 in 5.0 mi South 24.2 mph 29.9 mph N/A Rain Light Rain
4:15 PM 42.8 °F 33.5 °F 41.0 °F 93% 29.73 in 7.0 mi South 23.0 mph 31.1 mph N/A   Overcast
4:35 PM 42.8 °F 34.3 °F 41.0 °F 93% 29.71 in 7.0 mi South 19.6 mph 32.2 mph N/A   Overcast
4:55 PM 42.8 °F 33.5 °F 41.0 °F 93% 29.70 in 7.0 mi South 23.0 mph 29.9 mph N/A   Overcast
5:15 PM 42.8 °F 33.1 °F 41.0 °F 93% 29.69 in 7.0 mi South 25.3 mph 28.8 mph N/A   Overcast
5:35 PM 42.8 °F 33.1 °F 41.0 °F 93% 29.67 in 5.0 mi South 25.3 mph 31.1 mph N/A   Overcast
5:55 PM 42.8 °F 34.0 °F 41.0 °F 93% 29.66 in 5.0 mi South 20.7 mph 31.1 mph N/A   Overcast
6:15 PM 42.8 °F 34.0 °F 41.0 °F 93% 29.64 in 5.0 mi South 20.7 mph 33.4 mph N/A   Overcast
6:35 PM 42.8 °F 34.0 °F 41.0 °F 93% 29.64 in 5.0 mi South 20.7 mph 29.9 mph N/A   Overcast
6:55 PM 42.8 °F 33.3 °F 41.0 °F 93% 29.64 in 5.0 mi South 24.2 mph 29.9 mph N/A   Overcast
7:15 PM 42.8 °F 33.5 °F 41.0 °F 93% 29.63 in 5.0 mi South 23.0 mph 27.6 mph N/A   Overcast
7:35 PM 44.6 °F 35.9 °F 42.8 °F 93% 29.62 in 7.0 mi South 23.0 mph 33.4 mph N/A   Overcast
7:55 PM 44.6 °F 35.9 °F 42.8 °F 93% 29.62 in 5.0 mi South 23.0 mph 31.1 mph N/A   Overcast
8:15 PM 44.6 °F 35.5 °F 42.8 °F 93% 29.60 in 5.0 mi South 25.3 mph 31.1 mph N/A   Overcast
8:35 PM 44.6 °F 36.1 °F 42.8 °F 93% 29.60 in 5.0 mi South 21.9 mph 31.1 mph N/A   Overcast
8:55 PM 42.8 °F 34.5 °F 42.8 °F 100% 29.60 in 3.0 mi South 18.4 mph 34.5 mph N/A   Overcast
9:15 PM 42.8 °F 33.3 °F 42.8 °F 100% 29.59 in 1.5 mi South 24.2 mph 33.4 mph N/A   Overcast
9:35 PM 42.8 °F 32.7 °F 42.8 °F 100% 29.59 in 2.0 mi South 27.6 mph 35.7 mph N/A   Overcast
9:55 PM 42.8 °F 32.1 °F 41.0 °F 93% 29.58 in 3.0 mi South 31.1 mph 39.1 mph N/A   Overcast
10:15 PM 42.8 °F 32.7 °F 41.0 °F 93% 29.57 in 5.0 mi South 27.6 mph 35.7 mph N/A   Overcast
10:35 PM 42.8 °F 33.3 °F 41.0 °F 93% 29.57 in 5.0 mi South 24.2 mph 33.4 mph N/A   Overcast
10:55 PM 42.8 °F 33.1 °F 41.0 °F 93% 29.55 in 5.0 mi South 25.3 mph 34.5 mph N/A   Overcast
11:15 PM 42.8 °F 33.1 °F 41.0 °F 93% 29.55 in 7.0 mi South 25.3 mph 31.1 mph N/A   Overcast
11:35 PM 42.8 °F 34.0 °F 42.8 °F 100% 29.54 in 7.0 mi South 20.7 mph 29.9 mph N/A   Overcast
11:55 PM 44.6 °F 36.6 °F 42.8 °F 93% 29.53 in 7.0 mi South 19.6 mph 29.9 mph N/A   Overcast